Location: Taipo
(41.0000°S, 175.9500°E)
Time: 03:38:21
(UTC+00:00)

Cosmos 1553 Rocket - Pass Details

Date: 18 April 2024
Orbit: 940 x 1008 km, 82.9° (Epoch: 22 May)

Event Time Altitude Azimuth Distance (km) Brightness Sun altitude
Exits shadow 16:25:48 45° 355° (N) 1,262 4.4 -27.9°
Maximum altitude 16:27:49 89° 84° (E) 957 3.8 -27.5°
Drops below altitude 10° 16:34:00 10° 172° (S) 2,699 6.5 -26.4°
Sets 16:36:31 0° 172° (S) 3,657 7.2 -25.9°
